#timestamp,LO_Frequency,Hit,StdDev 
1507381215.2,286046995.7,N
1507381235.9,286046998.3,N
1507381255.7,286046998.4,N
1507381275.6,286046997.2,N
1507381295.4,286046997.8,N
1507381315.2,286046999.3,N
1507381335.1,286046997.6,N
1507381336.0,286046997.6,N
1507381355.8,286046995.1,N
1507381375.6,286046996.6,N
1507381395.4,286046999.4,N
1507381415.3,286046997.2,N
1507381435.1,286046998.6,N
1507381455.8,286046997.0,N
1507381475.7,286046991.8,Y
1507381495.5,286046996.8,P
1507381515.3,286047002.2,P
1507381535.2,286046998.5,N
1507381555.9,286047000.5,N
1507381575.7,286047000.5,N
1507381595.6,286047001.6,N
1507381615.4,286047002.4,N
1507381635.2,286047001.5,N
1507381655.1,286047001.8,N
1507381656.0,286047001.8,N
1507381675.8,286047003.1,N
1507381695.6,286047004.1,N
1507381715.5,286047001.4,N
1507381735.3,286046998.8,N
1507381755.1,286047002.7,N
1507381775.8,286047002.2,N
1507381795.7,286047001.7,N
1507381815.5,286047001.5,N
1507381835.3,286047000.9,N
1507381855.2,286046998.3,N
1507381875.9,286047003.8,N
1507381895.7,286047001.8,N
1507381915.6,286047001.9,N
1507381935.4,286047001.8,N
1507381955.2,286047001.4,N
1507381975.1,286047002.2,N
1507381976.0,286047002.2,N
1507381995.8,286047003.4,N
1507382015.6,286047003.8,N
1507382035.5,286047007.6,Y
1507382055.3,286047004.2,P
1507382075.1,286047004.1,N
1507382095.9,286047000.0,N
1507382115.7,286047003.1,N
1507382135.5,286047006.4,Y
1507382155.4,286047005.0,P
1507382175.2,286047006.1,P
1507382195.0,286047006.5,P
1507382195.9,286047006.5,Y
1507382215.8,286047001.3,P
1507382235.6,286047002.8,N
1507382255.4,286047001.3,N
1507382275.3,286047001.5,N
1507382295.1,286047003.7,N
1507382296.0,286047003.7,N
1507382315.8,286047002.9,N
1507382335.7,286047006.8,Y
1507382355.5,286047000.3,P
1507382375.3,286046998.9,N
1507382395.2,286046995.4,N
1507382415.9,286046999.5,N
1507382435.7,286046998.6,N
1507382455.6,286046998.3,N
1507382475.4,286046994.9,N
1507382495.2,286046995.0,N
1507382515.0,286046997.5,N
1507382515.9,286046997.5,N
1507382535.8,286046996.7,N
1507382555.6,286046997.2,N
1507382575.4,286046995.6,N
1507382595.3,286046996.2,N
1507382615.1,286046994.6,N
1507382635.8,286046995.1,N
1507382655.7,286046996.6,N
1507382675.5,286046997.9,N
1507382695.3,286046996.1,N
1507382715.2,286046998.0,N
1507382735.9,286046992.7,Y
1507382755.7,286046993.3,P
1507382775.6,286046991.5,P
1507382795.4,286046990.4,P
1507382815.2,286046992.2,N
1507382835.1,286046996.6,N
1507382836.0,286046996.6,N
1507382855.8,286046996.0,N
1507382875.6,286046993.9,N
1507382895.5,286046993.4,N
1507382915.3,286046994.8,N
1507382935.1,286046997.3,N
1507382955.8,286046994.3,N
1507382975.7,286046994.1,N
1507382995.5,286046994.6,N
1507383015.3,286046993.8,Y
1507383035.2,286047003.7,P
1507383055.0,286046999.7,N
1507383055.9,286046999.7,N
1507383075.7,286047002.4,N
1507383095.7,286047003.3,N
1507383115.5,286047003.9,N
1507383135.3,286047004.3,N
1507383155.1,286047003.8,N
1507383175.9,286046997.8,N
1507383195.7,286047001.2,N
1507383215.5,286046999.4,N
1507383235.4,286047000.5,N
1507383255.2,286047000.9,N
1507383275.0,286047003.8,N
1507383275.9,286047003.8,N
1507383295.8,286047003.3,N
1507383315.6,286047002.9,N
1507383335.4,286047001.6,N
1507383355.3,286047001.0,N
1507383375.1,286047000.0,N
1507383376.0,286047000.0,N
1507383395.8,286047004.0,N
1507383415.7,286047001.6,N
1507383435.5,286047001.8,N
1507383455.3,286047005.4,N
1507383475.1,286047006.2,N
1507383495.9,286047004.5,N
1507383515.7,286047007.4,N
1507383535.5,286047004.7,N
1507383555.4,286047005.6,N
1507383575.2,286047003.6,N
1507383595.0,286046999.5,N
1507383595.9,286046999.5,N
1507383615.8,286047000.5,N
1507383635.6,286047002.1,N
1507383655.4,286047000.6,N
1507383675.3,286046994.9,N
1507383695.1,286046997.8,N
1507383696.0,286046997.8,N
1507383715.8,286046997.8,N
1507383735.7,286047000.5,N
1507383755.5,286047001.4,N
1507383775.3,286046999.9,N
1507383795.2,286047000.3,N
1507383815.9,286047001.2,N
1507383835.7,286046995.5,N
1507383855.5,286047000.2,N
1507383875.4,286046998.2,N
1507383895.2,286046999.6,N
1507383915.0,286047000.1,N
1507383915.9,286047000.1,N
1507383935.8,286047002.0,N
1507383955.6,286047001.5,N
1507383975.4,286047003.1,N
1507383995.3,286046998.1,N
1507384015.1,286047000.2,N
1507384016.0,286047000.2,N
1507384035.8,286046998.1,N
1507384055.7,286047000.0,N
1507384075.5,286047000.5,N
1507384095.3,286047000.6,N
1507384115.2,286047004.5,N
1507384135.9,286047007.1,Y
1507384155.7,286047005.5,P
1507384175.6,286047005.6,N
1507384195.4,286047003.6,N
1507384215.2,286047005.2,N
1507384235.1,286047003.7,N
1507384236.0,286047003.7,N
1507384255.8,286046998.9,N
1507384275.6,286046999.0,N
1507384295.5,286046999.6,N
1507384315.3,286047004.4,N
1507384335.1,286047002.7,N
1507384355.8,286046999.8,N
1507384375.7,286047005.7,N
1507384395.5,286047003.1,N
1507384415.3,286046999.7,N
1507384435.2,286047000.1,N
1507384455.9,286046998.2,N
1507384475.7,286046998.8,N
1507384495.6,286046999.8,N
1507384515.4,286047004.3,N
1507384535.2,286047003.9,N
1507384555.1,286047002.5,N
1507384556.0,286047002.5,N
1507384575.8,286047012.1,Y
1507384595.6,286047008.7,P
1507384615.5,286047002.2,N
1507384635.3,286047004.3,N
1507384655.1,286047002.5,N
1507384675.8,286047003.2,N
1507384695.7,286047005.4,N
1507384715.5,286047003.2,N
1507384735.3,286047005.7,N
1507384755.2,286047004.6,N
1507384775.9,286047005.2,N
1507384795.7,286047001.4,N
